• In Netherlands
  • List of Countries
  • For 7 days
  • Water Temperature
  • Satellite Maps
  • Weather Map
  • Weather Widgets
  • user-avatar
    Login

    Hourly Weather Abomey

    Today, 24 July, Monday

    Time Temperature Precipitation Wind Pressure Humidity
    00:00 +24°C° 0 mm 2 mps 742 mmHg 95%
    01:00 +23°C° 0 mm 2 mps 742 mmHg 96%
    02:00 +23°C° 0 mm 2 mps 741 mmHg 96%
    03:00 +23°C° 0 mm 2 mps 741 mmHg 96%
    04:00 +23°C° 0 mm 2 mps 741 mmHg 96%
    05:00 +23°C° 0 mm 2 mps 741 mmHg 96%
    06:00 +23°C° 0 mm 2 mps 741 mmHg 96%
    07:00 +24°C° 0 mm 2 mps 742 mmHg 91%
    08:00 +26°C° 0 mm 3 mps 742 mmHg 86%
    09:00 +27°C° 0 mm 3 mps 743 mmHg 81%
    10:00 +28°C° 0.8 mm 3 mps 742 mmHg 78%
    11:00 +29°C° 0.8 mm 3 mps 742 mmHg 76%
    12:00 +30°C° 0.8 mm 3 mps 741 mmHg 73%
    13:00 +29°C° 1.3 mm 3 mps 741 mmHg 74%
    14:00 +29°C° 1.3 mm 3 mps 740 mmHg 76%
    15:00 +29°C° 1.3 mm 3 mps 740 mmHg 77%
    16:00 +28°C° 0.6 mm 3 mps 740 mmHg 81%
    17:00 +27°C° 0.6 mm 3 mps 740 mmHg 85%
    18:00 +26°C° 0.6 mm 3 mps 740 mmHg 88%
    19:00 +25°C° 0.1 mm 3 mps 740 mmHg 90%
    20:00 +25°C° 0.1 mm 3 mps 741 mmHg 91%
    21:00 +24°C° 0.1 mm 3 mps 742 mmHg 92%
    22:00 +24°C° 0 mm 3 mps 742 mmHg 93%
    23:00 +24°C° 0 mm 2 mps 742 mmHg 93%

    Tomorrow, 25 July, Tuesday

    Time Temperature Precipitation Wind Pressure Humidity
    00:00 +24°C° 0 mm 2 mps 742 mmHg 94%
    01:00 +23°C° 0 mm 2 mps 742 mmHg 94%
    02:00 +23°C° 0 mm 2 mps 741 mmHg 94%
    03:00 +23°C° 0 mm 2 mps 741 mmHg 94%
    04:00 +23°C° 0 mm 2 mps 741 mmHg 94%
    05:00 +23°C° 0 mm 2 mps 741 mmHg 94%
    06:00 +23°C° 0 mm 2 mps 741 mmHg 94%
    07:00 +24°C° 0 mm 3 mps 742 mmHg 89%
    08:00 +26°C° 0 mm 3 mps 742 mmHg 83%
    09:00 +27°C° 0 mm 4 mps 743 mmHg 78%
    10:00 +28°C° 0.1 mm 4 mps 742 mmHg 74%
    11:00 +29°C° 0.1 mm 4 mps 742 mmHg 70%
    12:00 +30°C° 0.1 mm 4 mps 742 mmHg 67%
    13:00 +30°C° 0.5 mm 4 mps 741 mmHg 67%
    14:00 +30°C° 0.5 mm 4 mps 740 mmHg 68%
    15:00 +30°C° 0.5 mm 4 mps 739 mmHg 69%
    16:00 +29°C° 0.3 mm 4 mps 739 mmHg 73%
    17:00 +27°C° 0.3 mm 3 mps 739 mmHg 77%
    18:00 +26°C° 0.3 mm 3 mps 740 mmHg 82%
    19:00 +26°C° 0 mm 3 mps 740 mmHg 83%
    20:00 +25°C° 0 mm 3 mps 741 mmHg 84%
    21:00 +24°C° 0 mm 3 mps 742 mmHg 85%
    22:00 +24°C° 0 mm 2 mps 742 mmHg 86%
    23:00 +24°C° 0 mm 2 mps 742 mmHg 87%

    Day after tomorrow, 26 July, Wednesday

    Time Temperature Precipitation Wind Pressure Humidity
    00:00 +24°C° 0 mm 2 mps 742 mmHg 89%
    01:00 +23°C° 0 mm 2 mps 741 mmHg 89%
    02:00 +23°C° 0 mm 2 mps 741 mmHg 90%
    03:00 +23°C° 0 mm 2 mps 740 mmHg 91%
    04:00 +23°C° 0 mm 2 mps 741 mmHg 92%
    05:00 +23°C° 0 mm 2 mps 741 mmHg 93%
    06:00 +23°C° 0 mm 1 mps 741 mmHg 94%
    07:00 +24°C° 0 mm 2 mps 741 mmHg 88%
    08:00 +26°C° 0 mm 2 mps 742 mmHg 82%
    09:00 +27°C° 0 mm 3 mps 742 mmHg 76%
    10:00 +28°C° 0.4 mm 3 mps 742 mmHg 74%
    11:00 +28°C° 0.4 mm 2 mps 742 mmHg 72%
    12:00 +29°C° 0.4 mm 2 mps 742 mmHg 70%
    13:00 +29°C° 1.4 mm 2 mps 741 mmHg 73%
    14:00 +29°C° 1.4 mm 2 mps 740 mmHg 75%
    15:00 +28°C° 1.4 mm 2 mps 739 mmHg 78%
    16:00 +28°C° 0.5 mm 2 mps 739 mmHg 81%
    17:00 +27°C° 0.5 mm 2 mps 739 mmHg 85%
    18:00 +26°C° 0.5 mm 2 mps 739 mmHg 88%
    19:00 +25°C° 0 mm 2 mps 740 mmHg 90%
    20:00 +25°C° 0 mm 2 mps 741 mmHg 91%
    21:00 +24°C° 0 mm 2 mps 741 mmHg 93%
    22:00 +24°C° 0 mm 2 mps 741 mmHg 93%
    23:00 +24°C° 0 mm 2 mps 741 mmHg 94%

    27 July, Thursday

    Time Temperature Precipitation Wind Pressure Humidity
    00:00 +23°C° 0 mm 2 mps 741 mmHg 94%
    01:00 +23°C° 0 mm 2 mps 740 mmHg 94%
    02:00 +23°C° 0 mm 2 mps 740 mmHg 95%
    03:00 +23°C° 0 mm 2 mps 739 mmHg 95%
    04:00 +23°C° 0 mm 1 mps 740 mmHg 95%
    05:00 +23°C° 0 mm 1 mps 740 mmHg 96%
    06:00 +23°C° 0 mm 1 mps 740 mmHg 96%
    07:00 +24°C° 0 mm 1 mps 741 mmHg 90%
    08:00 +26°C° 0 mm 2 mps 741 mmHg 85%
    09:00 +27°C° 0 mm 2 mps 742 mmHg 79%
    10:00 +28°C° 0.1 mm 2 mps 741 mmHg 75%
    11:00 +29°C° 0.1 mm 2 mps 741 mmHg 72%
    12:00 +30°C° 0.1 mm 2 mps 741 mmHg 69%
    13:00 +30°C° 0.1 mm 2 mps 740 mmHg 69%
    14:00 +30°C° 0.1 mm 2 mps 739 mmHg 69%
    15:00 +30°C° 0.1 mm 3 mps 738 mmHg 69%
    16:00 +29°C° 0.3 mm 2 mps 739 mmHg 74%
    17:00 +28°C° 0.3 mm 2 mps 739 mmHg 78%
    18:00 +27°C° 0.3 mm 2 mps 739 mmHg 83%
    19:00 +26°C° 0 mm 2 mps 739 mmHg 85%
    20:00 +26°C° 0 mm 2 mps 740 mmHg 87%
    21:00 +25°C° 0 mm 2 mps 740 mmHg 89%
    22:00 +25°C° 0 mm 2 mps 740 mmHg 90%
    23:00 +24°C° 0 mm 2 mps 740 mmHg 91%

    28 July, Friday

    Time Temperature Precipitation Wind Pressure Humidity
    00:00 +24°C° 0 mm 2 mps 740 mmHg 92%
    01:00 +24°C° 0.1 mm 2 mps 740 mmHg 92%
    02:00 +24°C° 0.1 mm 2 mps 740 mmHg 93%
    03:00 +24°C° 0.1 mm 2 mps 740 mmHg 93%
    04:00 +24°C° 0.1 mm 2 mps 740 mmHg 94%
    05:00 +24°C° 0.1 mm 2 mps 740 mmHg 94%
    06:00 +23°C° 0.1 mm 2 mps 741 mmHg 95%
    07:00 +24°C° 0 mm 2 mps 741 mmHg 90%
    08:00 +25°C° 0 mm 2 mps 742 mmHg 86%
    09:00 +27°C° 0 mm 2 mps 742 mmHg 82%
    10:00 +27°C° 0.5 mm 2 mps 742 mmHg 78%
    11:00 +28°C° 0.5 mm 2 mps 742 mmHg 75%
    12:00 +29°C° 0.5 mm 2 mps 741 mmHg 71%
    13:00 +29°C° 0.5 mm 2 mps 740 mmHg 72%
    14:00 +29°C° 0.5 mm 3 mps 740 mmHg 73%
    15:00 +29°C° 0.5 mm 3 mps 739 mmHg 73%
    16:00 +28°C° 0.4 mm 2 mps 739 mmHg 78%
    17:00 +27°C° 0.4 mm 2 mps 740 mmHg 82%
    18:00 +26°C° 0.4 mm 2 mps 740 mmHg 87%
    19:00 +26°C° 0 mm 2 mps 741 mmHg 89%
    20:00 +25°C° 0 mm 2 mps 741 mmHg 90%
    21:00 +24°C° 0 mm 2 mps 741 mmHg 92%
    22:00 +24°C° 0 mm 2 mps 741 mmHg 92%
    23:00 +24°C° 0 mm 2 mps 741 mmHg 93%

    29 July, Saturday

    Time Temperature Precipitation Wind Pressure Humidity
    00:00 +24°C° 0 mm 2 mps 741 mmHg 94%
    01:00 +23°C° 0 mm 2 mps 741 mmHg 94%
    02:00 +23°C° 0 mm 2 mps 741 mmHg 94%
    03:00 +23°C° 0 mm 2 mps 741 mmHg 94%
    04:00 +23°C° 0 mm 2 mps 741 mmHg 95%
    05:00 +23°C° 0 mm 2 mps 741 mmHg 95%
    06:00 +23°C° 0 mm 2 mps 742 mmHg 95%
    07:00 +24°C° 0 mm 2 mps 742 mmHg 89%
    08:00 +25°C° 0 mm 2 mps 743 mmHg 83%
    09:00 +27°C° 0 mm 3 mps 743 mmHg 77%
    10:00 +28°C° 0 mm 2 mps 743 mmHg 73%
    11:00 +29°C° 0 mm 2 mps 743 mmHg 68%
    12:00 +30°C° 0 mm 2 mps 742 mmHg 63%
    13:00 +30°C° 0.1 mm 3 mps 742 mmHg 64%
    14:00 +30°C° 0.1 mm 3 mps 741 mmHg 65%
    15:00 +30°C° 0.1 mm 3 mps 740 mmHg 66%
    16:00 +29°C° 0 mm 3 mps 740 mmHg 70%
    17:00 +28°C° 0 mm 2 mps 740 mmHg 75%
    18:00 +27°C° 0 mm 2 mps 741 mmHg 79%
    19:00 +27°C° 0 mm 2 mps 741 mmHg 81%
    20:00 +26°C° 0 mm 2 mps 741 mmHg 82%
    21:00 +25°C° 0 mm 2 mps 741 mmHg 84%
    22:00 +25°C° 0.1 mm 2 mps 741 mmHg 86%
    23:00 +24°C° 0.1 mm 2 mps 741 mmHg 87%
    Show more